Miscellaneous Local Product
Issued by NWS North Platte, NE

Home | Current Version | Previous Version | Text Only | Print | Product List | Glossary On
Versions: 1 2 3 4 5 6 7 8 9 10 11 12 13 14 15 16 17 18 19 20 21 22 23 24 25 26 27 28 29 30 31 32 33 34 35 36 37 38 39 40 41 42 43 44 45 46 47 48 49 50
000
AXUS43 KLBF 280610
MISLBF


WESTERN AND NORTH CENTRAL NEBRASKA HOURLY WEATHER ROUNDUP
NATIONAL WEATHER SERVICE NORTH PLATTE NE
1200 AM CST SAT FEB 28 2015

***STATIONS NOT REPORTING VARIABLES SUCH AS SKY/WEATHER OR
PRESSURE ARE PROVIDED BY THE NEBRASKA DEPARTMENT OF
ROADS...RAWS...AND APRS NETWORKS...AND ARE NOT UNDER
NATIONAL WEATHER SERVICE QUALITY CONTROL***

...OBSERVATIONS IN AND NEAR THE EASTERN PANHANDLE OF NEBRASKA...

CITY           SKY/WX    TMP DP  RH WIND       PRES   REMARKS
PINE RIDGE     PTCLDY    18   7  62 S14G20    30.05F WCI   4
CHADRON        CLEAR     17   7  64 S15       30.04S WCI   2
ALLIANCE       CLEAR     11   5  77 S16       30.03S WCI  -6
SIDNEY         CLOUDY     8   3  80 S13       30.01F HAZE    WCI  -8
WHITECLAY        N/A     18   5  57 S17         N/A  WCI   2
CRESCENT LAKE    N/A     10   4  75 S12G20      N/A  WCI  -5
LISCO            N/A     15   6  69 E12         N/A  WCI   1
BIG SPRINGS      N/A     11   8  85 S6          N/A  WCI   2
LEWELLEN         N/A      8   2  78 SE7         N/A  WCI  -3
$$

...OBSERVATIONS IN NORTH CENTRAL NEBRASKA...

CITY           SKY/WX    TMP DP  RH WIND       PRES   REMARKS
VALENTINE      CLOUDY    15   5  64 S12       30.18F WCI   2
THEDFORD       CLOUDY    18   7  60 S17G23    30.19S WCI   3
AINSWORTH      CLEAR     12   1  63 S13       30.21F WCI  -3
O`NEILL        CLEAR     12   1  61 S12       30.31F WCI  -2
ORD            CLEAR     10  -1  61 S10       30.32F WCI  -4
BROKEN BOW     CLEAR     10   1  67 S9        30.27F WCI  -3
BROWNLEE         N/A     16   3  57 S18         N/A  WCI  -1
SPRINGVIEW       N/A     14   1  55 SE3         N/A
BREWSTER         N/A     16   5  64 S10         N/A  WCI   3
ROSE             N/A     19   9  65 E9          N/A  WCI   8
NEWPORT          N/A     18   7  63 S7          N/A  WCI   9
SARGENT          N/A     11   2  66 S3          N/A
COMSTOCK         N/A     13   3  63 S12         N/A  WCI   0
CHAMBERS         N/A      9 -13  35 S5G12       N/A  WCI   1
EWING            N/A     10   2  71 S5          N/A  WCI   2
$$

...OBSERVATIONS IN SOUTHWEST NEBRASKA AND FAR NORTHEAST COLORADO...

CITY           SKY/WX    TMP DP  RH WIND       PRES   REMARKS
WRAY           CLOUDY    13   8  81 S8        30.12F WCI   1
IMPERIAL         N/A     14   6  70 S14       30.16F WCI  -1
OGALLALA       CLEAR     11   7  83 S9        30.15S WCI  -2
NORTH PLATTE   CLOUDY    16   6  65 S16       30.21F WCI   1
MCCOOK         CLOUDY    18   6  59 S14       30.26F WCI   4
LEXINGTON      CLOUDY    16   7  67 S14       30.29F WCI   2
PAXTON           N/A     12   6  76 S7          N/A  WCI   1
BRADY            N/A     15   5  65 CALM        N/A
GOTHENBURG       N/A     14   4  64 S8          N/A  WCI   3
CALLAWAY         N/A     14   7  73 S10         N/A  WCI   1
$$

...NORTH PLATTE AREA...

CITY           SKY/WX    TMP DP  RH WIND       PRES   REMARKS
AIRPORT        CLOUDY    16   6  65 S16       30.21F WCI   1
$$

...SOME WEATHER OBSERVATIONS FROM AROUND THE REGION...

CITY           SKY/WX    TMP DP  RH WIND       PRES   REMARKS
DENVER         PTCLDY     5   2  87 S8        29.90F WCI  -8
LARAMIE        PTCLDY     1  -3  83 SW7       29.76S WCI -12
CHEYENNE       PTCLDY     4   1  88 SW7       29.82F WCI  -8
SCOTTSBLUFF    CLEAR     13   6  74 SE12      30.01S WCI  -1
RAPID CITY     CLEAR     10   6  84 SE10      30.01F WCI  -4
PIERRE         CLEAR     13  -1  54 SE8       30.20F WCI   2
WINNER         FAIR      16  -3  43 S16       30.22F WCI   1
SIOUX FALLS    CLEAR      6  -1  73 S13       30.41F WCI -10
OMAHA          CLEAR      9   1  70 SE6       30.52F WCI  -1
GRAND ISLAND   PTCLDY    12   2  64 S9        30.39F WCI   0
KANSAS CITY    MOCLDY    16   5  62 SE10      30.54S WCI   4
WICHITA        CLOUDY    16  10  77 SE8       30.46F WCI   5
HAYS           CLOUDY    12   1  62 S12       30.37S WCI  -2
LIBERAL        CLOUDY    12   7  79 E10       30.26F WCI  -1
GOODLAND       FLURRIES  11   7  84 S17       30.15F WCI  -6
$$



USA.gov is the U.S. government's official web portal to all federal, state and local government web resources and services.